Theta_e
321 322 327 328 329 329 333 334 333 339 333 330 335 331 329 332 326 320 318 317 319 320 320 323 325 323 323 326 329 330 329 333 336 333 334 331 323 326 329 327 328 327 327 326 325 329 330 331 332 333 334 333 334 335 334 334 335 336 336 337 336 337 337 337 337 337 337 337 337 337 337 336 336 335 334 333 332 333 333 334 335 336 337 337 338 338 338 338 338 338 337 337 336 335 335 334 333
323 326 329 327 329 328 337 341 335 338 336 331 332 331 332 330 320 321 322 319 321 320 321 324 324 323 323 326 325 325 325 325 328 329 326 322 323 327 327 327 328 326 327 326 324 326 327 329 330 331 331 330 331 333 333 333 333 333 334 334 334 334 335 335 335 335 335 334 334 334 334 333 333 333 332 331 331 331 331 331 332 333 334 335 336 336 336 336 336 335 334 334 334 332 331 331 331
325 329 330 328 330 331 340 342 337 333 328 329 331 333 329 321 323 329 326 322 322 320 321 321 321 321 321 323 320 323 325 321 321 322 320 320 323 326 327 328 326 326 326 325 323 324 325 325 327 328 327 327 327 328 329 331 332 331 332 332 332 332 332 332 332 332 332 332 332 331 331 331 331 331 330 329 328 328 328 328 328 329 330 332 333 333 333 332 331 331 329 328 327 325 325 325 326
327 330 328 331 337 341 345 339 343 335 325 330 330 334 330 324 333 332 326 322 320 320 320 320 320 318 319 323 320 322 327 323 320 320 321 320 322 326 326 326 326 326 325 325 322 321 322 320 322 322 322 324 325 326 327 329 329 329 330 329 330 329 329 329 330 330 329 329 329 329 329 329 329 328 327 325 324 324 324 324 325 325 326 327 328 328 327 325 324 323 322 320 317 316 316 317 318
326 329 325 330 341 343 341 334 339 334 330 336 328 333 336 331 333 325 322 321 319 320 320 321 321 318 318 321 320 323 328 326 319 317 320 320 322 325 325 325 326 326 325 324 319 318 317 316 317 316 319 323 324 326 328 328 328 328 328 328 328 328 328 327 328 328 327 327 326 326 326 325 325 324 322 319 319 317 316 316 317 318 319 320 321 321 319 317 315 312 309 308 306 305 306 306 306
325 327 326 326 330 332 335 333 335 332 333 336 329 335 335 328 327 322 321 319 319 320 319 320 320 320 320 319 318 321 323 324 320 316 319 320 322 324 324 324 325 326 325 324 322 318 315 316 316 316 318 322 323 324 326 327 327 327 327 327 326 325 325 324 324 323 322 321 319 318 317 316 316 315 313 311 310 308 307 306 305 306 307 309 312 313 310 307 306 304 301 299 299 299 299 299 299
324 326 331 329 327 330 336 336 336 337 334 331 331 332 328 326 323 321 321 318 320 318 318 319 319 322 321 318 318 318 317 319 318 317 318 321 323 323 323 323 324 326 324 324 324 319 316 318 318 319 320 321 322 321 321 321 322 323 323 323 321 319 319 319 318 316 313 311 309 308 307 306 306 305 305 303 302 301 300 300 299 299 299 301 303 305 304 301 300 299 298 298 298 297 298 298 297
324 327 333 336 332 330 331 332 333 333 329 326 328 326 325 326 320 320 322 319 319 318 318 319 319 321 319 318 321 318 315 317 317 317 318 321 323 323 323 323 324 324 324 324 323 319 316 319 321 324 323 320 317 315 314 313 314 314 314 314 313 312 312 312 310 308 306 304 303 302 301 300 300 300 299 299 299 299 298 298 298 298 298 298 298 299 301 300 297 297 297 297 297 297 297 297 297
323 324 327 332 328 325 330 331 328 327 327 325 322 323 327 323 318 321 323 320 319 320 320 321 320 318 318 318 322 318 315 318 317 318 318 320 323 322 322 322 323 323 324 323 321 318 317 320 324 326 323 316 312 310 309 308 307 307 307 307 306 307 306 305 304 302 301 300 300 299 299 298 298 298 298 298 298 298 297 297 297 298 298 298 298 299 301 301 298 297 297 297 297 297 296 297 297
324 325 327 330 326 326 329 328 328 329 330 329 322 323 326 320 318 320 322 321 320 321 319 319 318 316 319 321 324 319 316 318 316 317 317 320 322 322 322 321 322 322 322 321 319 317 317 321 322 321 316 310 308 306 305 304 304 303 303 303 302 302 301 301 300 299 299 298 298 298 298 298 298 298 297 297 297 297 297 298 298 299 298 298 299 299 300 300 298 297 297 298 299 299 299 299 298
330 331 330 328 327 328 328 330 332 333 331 328 323 321 322 319 318 320 320 320 319 320 318 317 318 319 318 321 326 318 314 316 316 317 317 319 321 321 321 320 321 321 319 318 316 317 318 319 318 313 308 306 305 304 303 302 301 301 301 300 300 299 299 298 298 298 298 298 298 298 298 297 297 297 297 297 297 297 297 298 298 299 299 298 298 298 298 298 298 297 297 297 299 301 301 300 299
331 335 335 329 330 330 329 334 332 331 331 328 323 320 320 317 318 321 321 320 320 320 319 317 319 320 318 322 323 314 312 315 316 316 317 319 320 319 319 319 319 318 317 316 314 316 317 316 313 309 306 306 304 302 301 301 300 300 300 299 299 298 298 298 298 298 298 297 297 297 297 297 297 297 297 297 297 296 296 296 296 296 297 297 297 297 297 297 297 296 296 296 297 299 299 298 298
330 335 335 330 336 333 327 332 333 329 331 331 324 319 318 317 319 323 323 320 321 321 320 318 318 317 319 323 318 311 311 314 316 316 317 318 318 317 317 317 317 317 316 316 314 314 315 314 310 306 305 304 302 301 300 300 300 300 299 299 298 298 298 298 297 297 297 297 297 297 297 297 297 297 297 296 296 296 296 295 295 295 295 296 296 296 295 295 296 295 295 295 295 295 295 295 296
328 335 332 327 333 332 326 329 331 325 327 334 325 319 318 318 321 323 322 320 321 321 319 316 316 317 319 320 321 319 313 312 315 315 317 317 315 315 315 316 316 317 316 315 314 312 313 311 307 305 304 303 301 300 300 300 300 299 299 298 298 298 297 297 297 297 297 297 297 297 297 297 297 296 296 296 296 296 296 295 295 295 296 296 296 296 295 295 295 295 295 295 295 294 294 294 294
324 337 331 326 328 327 326 325 326 321 325 333 322 318 320 318 320 321 321 320 321 318 315 314 315 318 320 319 327 327 314 312 314 314 315 313 312 313 314 316 315 315 315 314 313 311 311 308 305 304 303 301 301 300 300 300 300 299 299 298 298 297 297 297 297 297 297 297 297 297 297 297 297 296 296 296 296 296 296 296 296 296 296 296 296 296 295 295 295 295 295 295 295 295 295 294 294
330 339 328 326 329 324 324 326 325 322 329 334 321 317 319 318 318 318 318 317 319 316 315 318 314 316 320 321 322 318 313 313 313 312 312 309 309 311 313 314 314 314 313 312 311 311 310 306 304 304 302 301 300 300 300 300 299 299 298 298 298 297 297 297 297 297 297 298 297 297 297 297 297 297 297 296 296 296 296 296 296 295 295 295 295 295 295 294 294 294 294 294 294 294 295 294 295
335 334 325 326 329 326 327 329 323 321 330 333 322 317 318 319 317 315 313 314 318 317 317 320 314 314 317 318 315 312 313 313 311 310 308 306 307 308 311 312 312 312 311 311 310 310 309 306 303 303 301 301 300 300 300 300 299 298 298 298 297 297 297 297 297 297 297 297 297 297 297 297 297 297 297 297 297 296 296 296 295 295 294 294 294 294 293 293 293 293 293 293 294 294 294 294 294
331 327 323 323 327 328 332 335 325 320 324 325 322 319 318 320 320 316 313 315 318 316 318 318 315 314 311 311 311 311 312 310 309 308 305 304 305 305 307 309 310 310 309 309 308 308 307 305 303 302 301 300 300 299 299 299 298 298 297 297 297 296 297 297 297 297 297 297 297 297 297 297 297 297 297 296 296 296 295 295 294 294 294 293 293 293 293 293 293 293 293 293 293 293 294 294 294
329 330 324 326 330 329 330 331 324 319 319 321 323 321 317 319 320 316 315 320 318 317 318 317 317 316 312 309 308 310 309 308 307 306 304 303 303 303 304 305 306 306 307 307 306 305 305 304 302 300 299 299 299 298 299 298 298 298 297 297 297 296 296 296 297 297 297 297 297 297 297 297 296 296 296 296 296 295 295 294 294 293 293 293 293 293 293 293 293 293 293 293 293 294 294 294 294
330 329 324 331 332 326 327 325 321 320 318 320 322 318 317 318 317 315 317 320 319 318 317 317 318 319 319 311 306 307 307 306 306 305 304 303 303 303 303 303 303 304 305 305 305 303 303 302 301 299 298 298 298 298 298 298 297 297 297 296 296 296 296 296 297 297 297 297 297 297 297 297 296 296 296 296 295 295 294 293 293 293 293 293 293 293 293 293 293 293 294 294 294 294 294 294 294
327 323 324 333 327 323 325 323 322 321 318 318 320 317 317 318 316 316 318 318 317 317 316 317 319 318 320 313 306 306 306 305 304 304 304 303 303 303 303 304 303 304 304 304 304 303 301 300 299 298 297 297 297 298 298 298 297 297 296 296 296 296 296 296 296 297 297 296 296 297 297 296 296 296 296 295 295 294 294 293 293 293 294 294 294 294 294 294 294 294 294 294 294 294 294 294 294
323 322 324 326 322 320 322 324 323 321 318 318 319 317 317 317 315 317 318 317 316 316 316 316 318 317 318 314 307 305 305 304 304 304 304 303 303 303 304 304 303 303 303 303 303 303 302 300 299 298 297 297 297 298 298 297 297 296 296 296 295 296 296 296 296 296 296 296 296 296 296 296 295 295 295 294 294 294 294 293 293 293 294 294 294 294 295 294 294 294 294 294 294 293 293 293 293
322 323 322 321 319 318 320 322 321 320 317 316 318 316 317 316 316 319 318 316 315 317 319 318 316 314 312 311 307 307 307 305 304 303 303 303 303 303 304 303 303 303 302 303 303 303 302 300 299 298 297 297 297 297 298 297 297 296 296 296 295 295 295 295 296 296 296 296 296 296 296 296 295 295 294 294 294 294 293 294 293 293 294 295 294 294 295 294 294 294 293 293 293 293 293 293 293
322 322 322 321 320 319 319 319 319 319 317 317 316 314 315 317 316 317 316 315 314 315 319 319 314 308 309 311 309 309 308 305 305 304 304 304 304 305 304 304 304 303 302 302 302 302 301 301 300 299 298 297 297 297 297 297 297 296 296 295 295 295 295 295 296 295 295 296 296 296 296 296 296 295 295 294 294 294 294 294 294 294 294 295 294 294 294 294 293 293 293 293 293 293 292 292 292
322 322 322 320 319 320 319 318 318 318 317 316 315 315 315 316 315 315 315 314 314 313 315 317 314 310 312 314 311 309 308 306 305 304 305 305 305 305 304 304 304 303 302 302 301 301 301 301 300 300 299 298 298 298 298 297 296 296 295 295 295 295 295 295 295 295 295 295 295 295 295 296 296 295 295 295 294 294 294 294 294 294 294 294 294 294 294 293 293 293 292 292 292 292 292 292 292
323 322 321 320 319 318 317 316 316 316 317 315 314 316 315 314 315 314 315 314 313 314 314 315 315 315 316 313 311 309 309 308 305 305 305 305 305 304 304 304 304 303 303 303 302 301 301 301 301 300 299 299 298 299 299 297 296 295 295 295 295 295 295 295 295 294 294 295 295 295 295 296 296 296 295 295 295 295 294 294 294 294 294 294 294 294 294 293 293 292 292 292 292 292 292 292 292
320 319 319 318 317 317 315 315 315 314 315 316 315 316 315 314 314 314 315 315 315 315 315 313 313 315 314 312 310 308 309 308 306 306 305 305 304 304 304 304 304 304 304 303 302 302 301 301 301 301 300 299 299 299 299 297 296 295 295 295 295 295 295 295 294 294 294 295 295 296 295 295 295 295 295 295 295 295 295 294 294 294 294 294 294 294 294 293 293 292 292 292 292 292 292 292 292
316 315 317 318 316 316 315 315 315 313 315 317 315 315 315 313 313 314 315 316 316 316 316 315 313 313 312 312 310 309 308 307 306 306 305 305 305 305 305 305 305 304 304 304 304 303 301 301 301 301 300 300 299 299 299 298 296 295 295 295 295 295 295 294 294 294 294 295 295 296 295 295 295 295 295 295 295 295 295 295 295 294 294 294 294 293 293 293 292 292 292 292 291 291 291 291 291
314 314 316 317 316 315 315 315 315 314 315 317 315 315 317 315 314 315 314 314 314 314 316 316 315 313 311 311 310 309 308 307 306 305 306 306 306 306 305 306 306 305 305 305 304 302 302 302 301 301 301 300 300 299 299 298 296 295 295 295 295 295 295 295 294 294 294 294 295 295 295 295 295 295 295 295 295 295 295 295 295 294 294 294 293 293 292 292 292 291 291 291 291 291 291 291 291
315 315 315 316 316 317 316 315 316 314 315 317 315 315 319 319 316 315 314 313 313 314 316 315 314 313 311 311 310 310 308 307 307 306 306 307 307 307 307 307 306 306 305 304 303 303 303 302 301 301 300 300 300 300 299 298 296 295 296 296 296 296 296 295 295 295 294 294 295 294 294 295 294 294 294 295 295 295 295 295 295 294 294 294 293 292 292 292 291 291 291 291 291 291 291 290 290
316 314 316 316 316 318 316 315 316 315 315 315 315 315 318 318 316 316 315 313 313 315 315 314 313 312 311 311 311 310 309 307 306 307 307 307 307 307 307 307 306 306 305 304 304 304 303 302 301 301 301 300 300 300 299 298 296 296 296 297 297 297 296 295 295 295 294 294 294 294 294 294 294 294 294 295 295 295 295 295 294 294 294 293 292 292 292 292 291 291 291 291 291 291 290 290 290
320 314 317 320 317 317 316 314 315 315 314 313 314 317 316 315 316 316 315 314 313 314 315 314 313 312 311 311 311 311 310 307 306 306 307 307 308 307 307 307 307 306 306 305 305 303 303 302 302 301 301 301 300 300 299 298 297 296 297 297 297 297 296 296 296 295 294 294 294 294 294 294 294 294 294 294 294 295 295 294 294 294 294 293 292 292 292 291 291 291 291 291 291 290 290 290 290
325 316 316 321 318 316 316 317 317 315 314 312 313 317 317 316 316 316 315 314 313 314 314 312 312 312 311 311 310 311 311 310 308 306 306 307 307 307 308 308 308 307 307 306 305 304 303 302 302 302 301 301 300 300 299 298 297 297 297 297 297 297 297 297 297 296 295 294 294 294 294 294 293 293 293 293 294 295 295 295 294 294 293 293 292 292 291 291 291 291 291 291 291 290 290 289 289
321 317 317 320 318 314 315 318 318 315 315 314 314 314 315 316 317 318 317 315 313 314 314 313 311 311 311 311 310 310 310 311 311 309 307 307 307 308 308 308 308 308 307 306 305 304 303 302 302 302 301 301 300 300 299 298 297 297 298 298 298 298 297 297 297 297 295 294 294 294 294 293 293 293 293 293 293 294 294 294 294 293 293 292 292 292 291 291 290 290 291 291 290 290 289 289 289
316 317 317 318 317 315 314 315 315 314 314 315 315 313 313 314 314 315 315 314 313 313 314 313 312 311 311 311 311 311 310 310 311 310 308 308 307 307 308 308 308 307 307 306 305 304 303 302 302 301 301 300 300 300 299 298 298 298 298 298 298 298 298 298 297 296 295 294 294 293 294 293 293 293 293 293 293 293 294 293 293 293 292 292 292 291 291 291 290 290 290 290 290 289 289 288 288
314 315 314 315 315 313 313 313 314 315 314 315 315 313 313 313 312 313 313 312 312 312 312 311 311 312 311 311 311 311 311 311 310 309 309 309 308 308 308 308 308 307 307 306 304 303 302 302 301 300 300 300 300 299 298 298 297 297 298 298 298 298 298 297 297 296 295 294 294 293 293 293 292 292 292 293 293 293 293 293 293 292 292 292 291 291 291 290 290 290 290 290 289 289 289 288 287
313 313 313 314 313 312 312 312 313 314 313 314 315 314 313 313 313 313 312 312 313 312 312 312 311 311 311 311 312 312 311 312 310 309 309 309 308 308 308 308 307 306 306 305 304 303 302 302 301 300 300 299 299 299 298 298 297 297 297 297 297 297 297 296 296 296 295 294 294 293 292 292 292 292 292 292 292 293 293 292 292 291 291 291 291 291 290 290 290 290 289 289 289 289 288 288 287
313 314 314 313 313 313 312 312 313 313 313 313 314 314 313 313 313 312 313 313 312 312 312 312 312 312 311 311 311 312 312 312 312 311 308 307 308 308 307 307 306 306 305 305 304 303 302 301 301 300 300 299 299 299 299 298 298 298 297 297 297 296 296 296 296 295 294 294 294 293 292 292 292 292 292 292 292 292 292 292 291 291 291 291 290 290 289 289 289 289 289 289 289 288 288 288 287
314 314 314 314 313 313 312 313 314 312 313 316 316 315 313 312 313 312 312 313 313 313 312 313 313 313 312 311 311 311 312 312 312 313 310 306 305 306 306 305 306 306 306 305 304 303 301 301 301 300 299 299 299 299 299 299 298 298 297 297 296 296 296 296 296 295 294 294 294 293 292 291 291 291 291 291 291 291 292 292 291 291 291 291 290 290 289 289 289 289 289 289 288 288 287 287 286
314 315 314 315 314 314 314 315 318 314 313 317 317 313 312 312 312 312 311 312 312 312 312 312 312 313 313 313 313 312 312 312 311 312 312 308 305 304 304 304 305 305 305 304 303 302 301 300 300 300 299 299 299 299 299 299 298 297 297 296 296 296 296 295 295 294 294 294 294 294 292 292 291 291 291 291 291 291 291 291 291 291 290 290 290 290 289 289 288 288 288 289 289 288 287 286 286
315 316 315 314 314 314 313 314 316 314 313 316 315 312 313 313 312 312 312 311 311 311 311 312 312 312 313 313 313 313 313 313 312 312 312 313 310 304 303 304 304 304 304 303 303 302 301 300 300 300 299 299 299 299 299 298 297 296 296 296 295 295 295 294 294 294 294 294 294 294 293 292 292 291 291 291 291 291 290 290 290 290 290 290 290 289 289 288 288 288 288 288 289 288 287 286 285
314 317 316 314 314 314 314 315 315 315 318 318 316 316 316 317 316 313 313 313 312 312 312 312 312 312 312 313 313 313 313 313 313 312 312 315 312 303 302 303 303 303 304 304 303 302 301 300 299 299 299 299 299 298 298 297 297 296 296 295 294 294 294 293 293 293 293 293 293 293 293 292 292 291 291 291 290 290 290 290 289 289 290 290 289 289 288 288 287 287 288 288 289 289 288 286 285
315 322 322 316 314 315 316 317 316 319 322 318 316 319 318 318 319 316 315 315 314 314 314 313 313 312 312 313 312 313 313 313 313 313 313 314 312 306 303 302 302 303 303 303 303 302 301 300 299 299 299 298 298 298 297 297 296 296 296 295 295 294 294 294 294 293 293 293 293 293 293 292 292 292 291 291 290 290 289 289 289 289 289 289 289 288 288 287 287 287 287 288 288 288 288 287 285
318 324 328 322 318 319 319 318 319 321 321 316 317 321 320 318 318 319 318 317 316 316 316 314 313 312 312 312 312 312 313 313 314 314 314 314 312 309 305 302 302 303 303 303 302 301 301 300 299 299 299 298 298 298 297 297 297 296 296 295 295 295 295 294 294 293 293 293 293 293 293 292 292 292 291 290 290 289 289 289 288 288 288 289 289 288 288 287 287 287 287 288 288 288 288 287 285
319 321 324 324 322 322 320 319 322 322 319 317 319 319 320 318 317 319 316 316 318 316 316 316 314 314 313 313 312 312 312 312 313 314 314 314 310 306 303 302 303 303 303 303 302 301 300 300 299 299 298 298 298 297 297 297 297 296 296 295 295 295 295 294 293 293 293 293 292 292 292 292 292 291 291 291 290 289 289 288 288 288 288 288 288 288 287 287 287 287 287 288 288 288 288 287 286
319 320 323 325 326 327 323 320 320 322 320 320 321 320 319 318 318 319 315 315 318 315 314 314 314 316 315 314 313 312 312 312 313 313 313 312 307 303 303 303 302 302 302 302 301 301 300 300 299 298 298 298 297 297 297 297 297 296 296 295 295 295 294 293 293 293 292 292 292 292 292 292 292 291 291 291 290 289 288 288 288 288 288 288 288 287 287 287 287 287 287 287 288 288 287 286 285
316 320 325 326 328 329 330 328 322 320 320 322 324 322 318 318 319 320 317 318 319 315 314 314 314 315 315 315 314 313 313 313 313 313 313 311 304 301 302 302 301 301 301 301 301 300 300 299 299 299 298 298 297 297 297 297 296 296 296 295 295 295 294 293 293 292 292 292 291 291 291 291 291 291 291 291 290 289 288 288 288 288 287 287 288 287 287 287 287 287 287 287 287 287 286 286 285
317 323 325 324 327 327 329 329 323 320 321 323 323 321 318 318 318 318 318 319 318 315 316 317 317 317 316 316 315 313 314 313 312 314 316 313 307 304 302 300 300 300 300 300 300 300 300 299 299 298 298 298 298 297 297 296 296 296 296 295 295 295 294 293 293 293 292 291 291 291 291 291 290 291 291 290 290 289 288 288 288 287 287 287 287 287 287 287 287 287 286 286 286 286 286 285 285
318 324 322 320 324 323 323 327 324 321 322 321 319 317 316 316 316 317 317 317 317 316 316 318 321 321 319 318 317 314 315 314 314 316 317 315 311 307 304 300 298 299 299 299 299 299 299 299 299 298 298 298 297 297 297 296 296 296 296 295 295 295 294 294 293 293 292 292 291 291 290 290 290 290 290 290 290 289 288 288 287 287 287 287 287 287 286 286 286 286 286 286 286 285 285 285 284
317 320 321 320 322 320 322 328 325 321 321 320 316 315 316 317 319 319 315 313 316 315 315 317 318 319 319 319 318 316 316 316 316 316 317 314 311 307 304 300 298 298 298 298 298 299 299 298 298 298 298 298 297 297 297 296 296 296 296 295 295 295 294 294 293 293 293 292 291 291 291 290 290 290 290 290 290 289 288 288 288 287 286 286 286 286 286 286 286 286 286 286 285 285 284 284 283
315 318 322 320 323 327 325 327 325 320 323 322 315 316 321 319 318 320 318 317 318 317 315 315 314 314 315 315 315 315 315 316 316 315 316 314 310 306 302 299 299 299 298 298 298 298 298 298 298 298 298 297 297 297 296 296 296 296 296 295 295 295 294 294 293 293 293 292 292 291 291 291 290 290 290 290 290 289 289 288 288 287 286 286 286 286 286 286 286 286 285 285 284 284 284 284 283
315 320 323 317 322 327 320 322 323 318 322 322 316 319 324 318 314 317 319 319 318 317 315 315 316 316 315 314 314 315 314 314 317 319 320 315 309 305 301 299 300 299 298 298 298 298 297 298 298 298 298 297 297 297 296 297 296 296 296 295 295 295 294 294 293 293 293 293 292 292 291 291 291 290 290 290 290 289 289 288 287 287 286 286 286 286 286 286 286 286 285 285 284 283 284 284 283
316 318 319 315 319 322 317 322 324 317 318 319 317 320 320 317 316 316 318 316 315 319 318 316 317 315 313 313 312 313 313 314 319 321 319 313 309 305 300 299 300 299 298 298 298 298 298 298 298 297 297 297 297 297 296 296 296 295 295 295 295 295 294 294 293 293 292 292 292 292 292 291 291 291 290 290 290 289 288 288 287 286 286 286 286 285 286 286 286 286 285 285 284 283 284 284 284
316 319 317 315 319 321 320 324 324 319 319 319 318 319 317 318 319 317 318 318 317 322 320 315 315 315 314 313 311 312 311 312 318 320 316 313 311 307 301 299 300 299 299 299 298 299 298 298 298 297 297 297 297 297 296 296 296 295 295 295 295 295 294 294 294 293 292 292 291 291 291 291 291 291 291 290 290 289 288 288 287 286 286 285 285 285 286 286 286 285 285 284 283 283 284 284 284
314 318 317 317 320 321 320 321 321 319 319 320 319 318 316 317 317 316 319 320 318 319 318 314 315 315 315 315 314 313 312 312 317 320 319 316 313 309 302 299 300 300 299 299 298 298 298 298 298 297 297 297 297 297 296 296 295 295 295 295 295 295 294 294 293 293 292 292 291 291 291 291 291 291 291 290 290 289 288 288 287 286 286 285 285 285 285 285 285 285 284 283 283 283 284 284 283
312 313 315 316 317 319 320 321 321 320 319 320 320 319 318 318 320 319 319 321 318 315 315 315 315 314 315 316 315 315 314 314 315 317 318 317 313 308 302 300 300 300 300 299 299 298 298 298 297 297 297 297 297 296 296 296 295 295 295 295 294 294 294 294 293 293 292 292 291 291 291 291 290 290 290 290 290 289 289 288 287 286 286 285 285 285 285 285 285 284 284 283 283 283 283 283 283
315 314 315 315 314 318 319 317 319 319 317 319 320 320 319 318 321 319 317 318 314 311 313 315 315 314 314 315 316 317 317 315 315 315 316 316 313 307 302 301 301 300 299 299 299 299 298 298 297 297 297 297 296 296 296 296 296 295 295 295 294 294 294 293 293 292 292 292 291 291 290 290 290 290 290 290 289 289 289 288 287 286 286 285 285 285 285 285 284 283 283 282 283 283 283 283 283
316 315 315 314 314 318 318 317 318 317 317 318 318 319 320 318 317 315 314 315 313 313 315 314 314 314 314 315 317 318 317 316 315 314 314 314 314 309 303 301 300 299 299 299 298 298 298 298 298 297 297 297 296 296 296 296 296 295 295 295 295 294 293 293 293 292 292 292 291 291 290 290 290 289 289 289 289 289 288 288 287 286 286 285 285 285 285 284 284 283 282 282 282 282 282 282 282
Wind_Speed
2 3 2 2 3 3 2 4 2 3 2 1 3 1 5 5 3 3 2 3 1 2 3 1 2 2 2 4 7 7 5 5 5 5 3 5 13 16 18 18 17 19 19 17 17 17 18 16 14 13 12 11 11 12 11 11 11 11 11 11 11 10 10 10 10 10 10 10 9 9 8 8 7 7 6 6 6 7 7 7 7 8 7 7 6 6 6 7 6 4 3 2 2 3 3 3 3
1 2 2 1 3 3 0 3 2 4 4 3 4 3 5 4 1 5 6 6 4 3 2 2 5 6 5 6 7 5 2 2 3 4 2 9 15 15 19 18 18 19 19 17 17 17 17 17 15 13 12 13 12 13 12 11 11 10 11 11 10 10 10 10 9 9 9 10 9 9 8 7 7 7 7 7 7 7 7 6 7 7 6 6 6 5 4 5 5 3 1 1 1 2 2 2 2
1 2 2 1 2 3 1 3 2 1 2 3 5 4 3 2 5 7 7 7 6 4 3 3 3 4 6 4 2 3 2 2 2 3 2 12 13 17 23 19 20 19 18 18 16 17 17 17 16 14 14 15 15 15 14 12 12 11 11 11 11 11 10 10 10 10 9 10 9 9 8 8 7 7 7 6 6 5 5 5 6 6 7 7 5 3 2 2 3 2 2 2 2 3 3 3 2
1 1 2 2 2 3 4 3 2 4 1 3 3 6 3 4 7 6 7 7 5 2 2 3 1 1 4 1 2 3 3 3 5 7 5 16 19 22 26 21 22 19 19 18 17 18 18 19 17 15 16 17 17 16 15 13 13 12 12 12 12 12 12 11 10 10 10 10 10 9 9 9 8 8 6 5 5 4 4 4 5 6 7 7 5 3 3 2 2 2 3 3 3 3 3 3 3
1 1 3 2 2 1 3 1 2 4 4 4 2 6 5 7 7 5 5 5 4 2 3 3 1 2 1 2 3 1 5 1 6 11 8 19 23 26 27 23 24 21 20 19 18 18 18 20 18 16 16 17 17 16 16 15 14 13 14 13 13 14 13 13 12 12 11 11 10 10 10 9 9 8 6 5 5 5 5 5 5 6 6 6 5 4 3 3 3 2 2 3 3 3 3 3 3
1 1 3 4 2 1 2 1 2 3 5 5 3 7 7 6 7 6 3 4 3 2 4 3 2 3 0 1 1 2 5 1 5 11 11 20 26 28 27 24 25 22 22 21 19 18 18 20 18 18 16 17 17 17 16 16 15 14 14 14 14 14 14 13 13 12 11 10 9 9 9 8 8 7 7 6 5 5 5 5 5 6 6 6 6 5 3 3 3 3 3 3 3 3 3 3 3
3 1 3 4 2 2 3 3 4 4 5 6 5 6 8 6 6 5 3 2 1 2 1 2 3 5 1 1 1 3 3 3 6 7 13 24 30 30 27 25 25 24 22 21 20 19 19 20 19 18 17 18 17 16 16 15 15 14 14 13 13 13 12 12 11 11 10 9 9 9 8 8 8 7 7 6 6 6 5 5 6 6 6 6 6 6 5 4 4 5 5 5 5 5 5 4 4
3 1 1 4 1 3 3 3 4 4 5 5 5 6 7 7 7 6 6 3 1 2 1 3 2 4 2 1 2 4 3 8 5 5 15 28 33 31 28 27 26 25 23 22 21 20 20 20 18 17 17 17 17 16 15 15 14 14 14 13 13 12 12 12 11 11 10 10 9 9 9 8 8 7 7 7 7 7 7 7 7 7 8 7 7 7 7 7 6 6 6 6 6 6 6 6 6
3 2 1 3 1 1 0 3 4 4 5 6 6 8 5 7 7 6 6 3 1 3 4 5 4 2 3 2 3 4 4 10 7 8 22 31 35 33 30 30 28 27 25 23 22 21 21 21 19 17 17 17 16 16 15 15 15 15 15 14 14 13 13 13 12 12 11 11 10 10 10 10 9 9 9 9 9 9 9 9 10 9 9 9 9 9 9 8 8 8 8 8 8 8 7 7 7
3 3 2 1 2 1 4 3 4 4 6 5 7 8 5 7 6 5 6 5 3 4 4 3 1 2 3 4 4 3 4 10 11 17 26 32 36 34 31 30 29 28 26 25 23 23 23 22 20 18 18 18 17 17 17 17 16 16 15 15 15 14 14 14 13 13 12 12 12 12 12 12 12 12 12 12 12 12 12 11 11 11 10 10 10 9 9 9 8 8 8 8 9 9 8 8 7
3 3 2 2 2 2 4 4 5 5 6 5 6 7 6 8 6 3 3 3 3 4 3 1 1 3 2 2 3 2 5 13 18 25 29 33 36 34 33 30 28 27 26 25 23 24 24 23 22 20 20 20 20 19 19 18 18 17 16 16 15 15 15 14 14 14 14 14 14 14 14 14 14 14 14 13 13 13 12 12 11 11 11 10 10 10 9 9 9 8 8 8 8 8 8 8 7
2 2 4 3 2 3 4 3 5 6 7 5 5 4 5 7 5 3 5 4 3 3 4 5 4 5 2 4 3 3 7 18 22 26 31 35 35 34 32 30 28 27 26 24 24 24 24 23 22 21 22 21 22 21 20 19 18 17 16 15 15 14 14 14 14 14 15 15 15 16 16 15 15 15 14 13 13 12 12 12 11 11 11 11 11 11 10 10 10 9 8 8 7 7 6 7 7
3 2 5 2 3 3 3 3 5 5 6 4 4 3 6 7 6 7 7 4 4 5 6 8 4 4 4 4 3 2 8 21 23 26 32 34 33 32 31 29 28 27 26 25 24 24 24 24 24 24 23 23 23 21 20 18 17 15 15 14 14 14 14 15 15 16 16 16 16 16 16 15 15 14 13 13 13 12 12 12 12 12 11 11 11 11 11 11 10 10 9 8 8 7 6 6 6
2 3 5 1 1 1 3 3 4 2 5 6 3 2 4 4 5 6 7 4 7 7 5 7 6 3 3 2 2 3 10 23 25 28 32 32 30 29 29 29 29 27 26 25 25 25 25 25 26 26 25 24 22 21 19 17 16 15 14 14 14 15 15 16 16 17 17 17 17 16 15 15 14 14 13 13 12 12 13 13 12 12 11 11 11 11 10 10 10 10 10 9 9 8 8 8 7
2 1 4 1 2 2 3 4 3 3 4 6 3 1 2 3 2 4 6 6 8 5 1 3 6 2 4 5 5 6 16 28 28 29 31 29 27 27 28 29 28 27 26 26 26 26 27 27 27 27 26 24 22 20 19 17 17 16 15 15 15 16 16 17 17 17 17 17 16 15 15 14 13 13 13 13 13 12 13 13 12 12 11 11 11 11 11 10 10 10 10 9 9 9 8 8 8
2 3 4 1 2 2 3 4 2 2 5 6 3 1 1 6 2 3 5 4 2 2 1 4 5 2 5 8 6 6 20 32 30 30 29 25 24 25 27 28 28 27 27 26 27 28 28 28 28 27 26 24 23 21 19 18 18 17 16 16 16 17 17 18 17 17 17 16 16 15 15 14 14 13 13 13 13 12 12 13 12 12 12 12 12 11 11 11 11 11 10 10 9 9 9 8 8
3 4 2 2 2 2 4 4 2 2 5 6 5 1 4 6 3 2 2 2 1 2 2 5 3 1 3 4 4 5 24 33 31 30 26 24 24 24 25 27 28 28 28 28 28 30 30 30 29 28 27 25 23 22 20 20 19 18 18 18 18 19 19 19 18 18 17 17 16 16 16 15 15 14 14 13 13 13 12 13 12 12 12 12 12 12 12 11 11 11 11 11 11 10 10 9 9
3 3 2 3 3 4 5 6 5 3 4 5 4 4 7 5 4 1 1 1 2 3 4 4 3 2 2 1 2 15 30 34 32 31 27 24 23 23 24 28 30 31 31 30 30 32 33 32 31 29 28 26 25 23 22 21 21 20 20 20 20 20 20 20 19 19 18 18 17 17 17 16 16 15 15 14 14 13 13 13 13 12 12 12 12 12 12 11 11 11 11 11 11 10 10 10 10
2 3 2 4 6 5 5 6 4 2 3 5 5 4 6 6 3 1 2 6 3 4 6 4 5 5 2 4 12 23 32 33 33 32 28 27 26 26 26 27 30 31 33 35 35 34 35 35 33 32 30 29 27 25 24 23 23 22 22 22 22 22 22 21 21 20 20 19 19 18 18 17 17 16 15 15 14 14 13 13 13 12 12 11 11 11 11 11 10 10 11 10 10 10 10 10 10
3 3 2 7 7 6 5 6 6 6 4 4 6 3 4 6 3 2 4 7 6 7 8 4 8 11 5 4 12 22 28 29 31 30 28 29 30 30 28 29 32 35 39 39 38 37 37 37 36 34 32 31 29 28 27 26 25 24 24 24 24 24 24 23 22 22 21 21 21 20 19 18 17 16 15 14 13 13 13 13 12 11 11 11 10 10 10 10 9 9 9 9 9 9 9 9 9
2 4 5 7 5 4 8 8 8 7 4 4 4 1 3 6 3 3 3 4 9 9 10 10 12 14 9 7 10 19 22 23 26 27 26 27 29 30 31 34 36 38 38 36 37 38 39 39 38 36 35 33 32 31 29 28 27 27 27 26 26 26 25 25 24 23 23 23 23 21 19 18 17 16 14 14 13 12 13 12 12 11 10 10 9 8 9 9 8 8 8 8 8 8 8 8 8
2 5 8 7 4 4 9 7 6 5 3 3 4 3 5 3 2 5 7 7 12 7 8 12 14 12 11 12 13 15 16 18 22 24 25 27 29 31 32 33 33 31 32 35 39 41 41 40 39 38 37 36 34 33 31 30 30 30 30 29 29 28 27 27 26 25 25 25 24 21 19 18 17 16 14 14 13 12 12 12 11 10 8 8 8 8 8 8 8 8 8 8 8 8 8 8 8
3 6 6 7 6 6 8 4 4 4 2 6 5 4 2 2 5 5 9 14 16 8 7 11 13 13 13 15 14 14 15 16 20 26 29 30 31 34 35 35 35 34 35 39 41 42 42 42 40 39 39 38 36 34 33 32 32 32 31 31 31 31 30 29 28 27 26 25 23 21 19 18 18 17 15 14 13 12 12 11 10 9 7 7 7 7 7 8 8 8 7 7 7 7 8 8 9
6 6 5 7 8 9 10 7 5 3 6 8 3 4 3 6 7 3 8 17 18 11 6 8 10 9 11 13 14 16 17 19 24 32 35 36 39 42 40 38 38 37 36 38 40 41 43 43 42 41 40 39 38 36 35 34 33 33 33 33 32 32 31 31 29 28 26 24 23 22 20 19 18 17 16 15 13 12 11 10 9 7 6 6 6 7 7 8 8 7 7 7 7 7 8 8 9
6 8 5 4 5 8 9 7 7 6 7 6 3 8 9 10 4 6 16 22 16 10 7 8 6 5 10 12 16 16 16 19 25 30 33 36 38 37 35 35 34 33 36 39 39 40 43 44 44 43 42 41 40 38 37 36 35 35 35 35 34 33 33 32 29 28 27 25 24 23 21 20 19 18 17 15 14 13 11 10 8 7 6 5 6 6 7 7 7 7 7 6 7 7 7 8 9
7 8 5 5 6 8 7 7 8 6 5 3 3 13 12 6 2 9 23 22 12 8 10 9 7 6 9 12 14 16 16 18 21 26 31 33 31 29 32 34 33 36 40 40 39 42 43 44 45 45 44 43 41 40 38 38 37 37 37 36 35 34 33 31 29 28 28 27 25 24 23 20 19 18 17 16 15 13 12 10 9 7 5 5 4 4 5 6 7 6 6 6 6 7 7 8 9
4 5 6 7 8 9 6 7 9 4 4 6 7 15 13 3 2 10 20 12 3 7 10 9 8 10 11 11 12 14 15 19 25 27 25 25 25 29 33 34 36 40 39 38 41 44 42 44 46 46 45 44 43 42 40 39 39 39 38 37 36 35 33 31 30 29 29 28 26 25 23 21 19 19 18 17 16 14 13 11 9 7 5 4 3 3 5 5 6 6 5 6 6 7 7 8 9
2 1 6 10 7 9 9 9 8 2 4 8 10 12 12 2 4 14 21 7 5 5 8 8 8 11 11 11 11 10 12 21 27 23 19 23 30 34 35 37 41 41 39 42 44 42 42 45 46 46 46 44 44 43 42 41 41 40 39 38 37 36 34 32 31 31 30 29 27 25 24 22 21 20 19 18 17 15 13 12 10 8 6 4 3 3 4 5 5 5 5 6 6 6 7 7 8
2 2 5 12 7 10 16 10 7 4 3 6 9 5 9 5 11 19 22 9 1 5 8 9 9 10 10 10 10 9 12 18 19 20 26 33 37 37 38 43 44 41 43 44 41 40 43 45 46 46 45 45 45 44 43 42 42 41 40 39 38 36 35 34 34 32 31 30 28 26 25 24 23 21 20 18 17 16 14 13 11 8 6 4 4 3 3 4 4 4 5 5 5 5 6 7 8
3 2 1 9 7 10 14 3 2 5 4 6 8 3 9 11 16 19 17 9 4 7 11 11 10 9 9 9 8 9 12 13 16 24 34 37 37 37 40 43 42 42 41 37 37 41 43 44 45 45 45 46 46 45 44 43 43 42 41 40 39 38 36 36 35 34 32 31 29 28 27 25 24 23 21 20 19 17 15 13 11 9 7 5 4 3 2 3 3 3 4 4 5 6 8 9 10
3 2 1 3 2 9 10 2 5 3 4 8 8 4 9 14 19 15 11 8 6 9 13 12 11 10 9 8 9 11 11 13 21 30 35 37 37 36 39 40 39 40 37 36 41 44 43 43 44 45 46 47 46 45 45 44 44 43 42 41 39 38 37 37 36 35 34 32 31 29 28 27 25 24 22 21 20 18 17 15 13 10 8 6 4 3 2 1 2 2 3 4 5 7 8 10 11
1 2 4 2 3 7 13 6 7 7 5 5 7 4 8 15 20 15 7 6 8 10 14 12 11 10 9 9 9 11 11 13 21 29 32 35 36 35 38 39 38 39 40 41 43 41 41 43 44 45 46 47 47 46 46 45 44 44 43 41 40 39 38 38 37 36 35 33 32 31 30 28 27 25 23 22 21 20 18 16 14 12 9 7 5 4 2 1 1 2 3 4 6 7 9 10 11
2 3 5 5 5 4 8 9 6 10 4 3 7 6 6 11 16 13 6 5 8 9 13 12 11 11 11 9 9 10 10 11 15 21 30 35 35 37 38 39 40 41 43 43 42 41 42 43 44 45 46 48 48 46 46 45 44 44 43 42 41 40 40 39 38 36 35 35 34 33 31 30 28 26 25 23 22 21 19 17 15 13 11 9 7 5 3 2 1 1 3 5 6 8 10 11 13
4 2 4 5 6 4 4 9 6 5 6 6 10 9 11 14 13 12 7 5 7 8 12 12 10 10 10 9 9 10 10 12 13 17 29 34 34 37 38 40 42 41 42 42 43 43 44 44 45 46 46 46 46 45 45 44 43 42 42 42 41 40 40 39 38 36 36 36 35 34 32 31 30 28 27 25 24 22 20 19 17 15 13 10 9 7 5 4 1 0 2 4 6 8 10 11 14
6 5 4 4 6 6 7 10 5 1 4 7 8 10 15 18 15 14 13 8 6 9 12 10 9 10 10 9 10 11 11 13 16 20 27 28 31 36 37 38 40 39 40 41 42 42 42 43 45 45 44 44 44 44 43 42 41 40 40 40 40 40 40 39 38 38 37 37 36 35 33 32 31 30 29 27 25 24 22 20 18 16 14 12 11 9 7 5 3 1 1 3 4 7 8 11 13
9 7 5 6 7 7 9 14 8 3 6 8 10 13 15 17 17 17 17 13 12 14 12 9 9 10 11 10 11 11 12 15 18 22 23 22 27 33 35 37 38 39 39 39 40 41 42 43 43 43 43 44 43 41 41 40 38 38 38 38 39 41 41 40 39 38 38 37 36 35 35 34 32 31 30 28 27 25 23 21 19 17 15 14 12 11 9 7 5 3 1 1 2 4 7 10 12
7 5 6 8 9 9 11 15 12 5 5 9 12 17 17 16 18 17 15 13 13 16 15 14 12 11 13 13 14 14 14 17 18 19 19 21 25 29 33 35 35 35 35 37 39 41 43 44 44 44 43 43 44 44 43 42 41 39 39 41 42 42 42 41 40 40 39 38 37 36 36 35 33 32 30 29 27 25 24 21 20 19 17 15 13 12 11 9 8 5 4 3 1 2 5 7 11
8 6 8 9 8 13 13 13 15 5 5 8 11 16 18 16 16 16 13 12 15 16 16 18 16 13 13 14 17 18 14 15 16 15 15 19 22 26 31 33 34 34 36 38 42 44 44 44 45 45 44 45 47 48 47 46 46 45 44 45 44 42 42 43 42 42 41 39 38 38 38 36 34 33 31 30 28 26 25 23 22 20 18 17 15 13 12 10 9 7 6 5 3 3 4 5 10
7 5 7 7 7 12 11 10 14 5 4 7 10 13 16 14 15 14 13 15 17 17 16 19 17 13 14 15 16 17 15 14 16 16 14 14 19 24 27 30 34 37 39 41 43 43 43 44 45 45 45 47 48 48 48 48 47 46 44 42 41 39 40 42 41 41 41 40 39 38 37 37 35 34 32 31 29 27 26 25 23 21 19 18 16 15 13 12 10 9 7 6 5 5 5 4 7
6 6 6 8 8 9 8 7 9 4 3 6 9 12 12 11 12 11 15 18 17 16 17 17 16 14 16 17 15 16 17 16 16 19 15 10 14 19 24 29 33 35 36 38 40 41 43 45 46 46 47 48 48 49 49 47 44 41 38 35 36 36 36 37 37 37 39 39 39 38 38 37 36 35 33 31 30 29 27 26 24 23 21 19 17 15 14 13 11 10 9 6 5 6 6 4 5
8 8 8 11 12 11 10 7 7 5 4 5 7 12 10 9 13 12 12 16 16 16 16 16 16 15 16 17 16 16 17 17 17 19 15 9 10 16 23 28 31 33 35 39 42 43 44 45 46 46 46 47 48 48 47 44 40 38 34 29 29 31 30 31 33 35 38 39 40 40 39 39 37 35 34 33 31 30 28 26 25 23 22 20 17 15 14 13 12 10 9 6 4 4 5 6 4
6 7 13 18 15 12 13 10 8 5 5 4 3 9 9 8 12 13 10 11 13 12 14 16 17 16 14 15 18 17 17 17 17 18 15 9 9 13 20 26 29 32 37 41 44 44 44 44 45 45 45 46 46 46 45 43 41 40 37 33 32 31 29 33 39 40 40 41 42 42 40 39 38 36 35 34 32 31 29 27 26 24 23 21 18 16 15 14 13 12 9 7 4 2 4 5 5
7 6 13 16 12 9 11 9 5 2 4 3 3 1 10 6 7 11 10 10 13 11 11 15 16 14 12 13 16 16 16 15 14 15 13 10 10 11 16 24 30 34 37 39 39 41 41 42 44 45 45 45 45 45 45 44 43 42 43 42 40 38 36 39 42 41 41 42 41 41 41 40 38 37 36 35 33 31 30 28 26 25 23 21 19 18 17 15 14 12 10 8 5 3 2 4 5
7 5 8 9 8 8 7 5 5 4 3 4 2 5 8 14 6 11 13 11 11 12 13 15 15 14 12 12 14 16 17 15 11 11 12 12 12 12 16 24 32 35 34 34 35 38 39 40 43 44 44 44 44 45 46 47 46 45 45 43 41 42 42 40 38 37 38 40 40 40 41 40 39 38 37 36 34 32 31 29 28 26 24 22 20 19 18 16 15 14 12 9 7 5 3 2 4
7 3 6 6 5 5 4 4 3 2 4 4 4 5 3 15 6 7 9 9 9 13 16 17 16 14 13 13 14 16 17 16 12 11 13 12 11 15 20 25 31 32 31 33 36 37 38 38 40 41 42 43 43 45 47 48 48 46 45 43 40 41 40 35 33 35 36 38 39 40 40 41 41 39 38 36 35 34 32 30 29 27 25 24 22 20 18 18 17 15 13 11 9 6 4 3 3
4 6 6 5 3 3 4 2 1 2 5 5 6 5 3 13 7 5 3 5 8 12 13 14 14 12 12 12 13 13 13 15 14 12 12 10 10 16 19 21 24 27 29 33 34 34 36 37 38 41 42 42 43 45 47 48 47 45 44 44 42 39 36 32 31 33 35 37 38 39 40 41 41 41 40 38 36 35 33 31 30 29 27 25 24 22 21 20 18 16 14 12 10 8 6 4 3
3 6 5 6 5 5 4 2 4 2 8 7 10 11 7 8 6 4 4 5 7 9 8 9 11 12 13 13 12 12 13 13 12 10 9 7 8 12 15 17 21 25 28 30 32 34 36 38 39 41 42 42 43 44 46 47 47 45 45 46 44 40 37 34 33 34 36 37 38 39 40 41 41 42 41 39 38 36 34 33 32 30 29 27 25 24 23 21 19 17 15 13 11 9 7 6 5
5 4 4 3 4 4 4 4 4 1 9 6 11 12 10 10 7 2 5 6 5 7 7 9 12 13 13 12 11 12 13 11 7 7 8 6 6 9 12 15 19 24 27 30 32 34 36 38 39 40 41 42 43 44 46 46 46 47 47 46 45 43 40 39 39 39 39 40 40 39 38 38 40 40 41 41 40 38 36 35 33 32 30 28 27 25 23 21 19 18 16 14 12 10 8 7 6
5 4 4 1 4 3 2 4 1 4 8 5 7 7 7 12 8 4 10 11 8 9 9 11 12 12 13 12 12 11 10 8 6 7 7 6 7 8 10 13 18 23 27 30 32 34 36 38 39 40 42 44 43 43 45 46 47 49 48 47 46 44 42 43 43 42 42 42 42 40 39 40 40 41 42 43 43 42 39 38 36 34 32 30 28 26 23 21 20 19 17 15 13 12 10 8 7
6 6 6 5 3 2 3 4 3 6 7 4 4 5 5 9 6 9 15 14 10 8 9 11 12 12 13 11 10 10 9 9 8 7 6 7 8 9 9 12 18 23 26 29 31 34 35 36 38 40 41 42 43 44 45 46 48 50 49 47 45 43 44 45 44 43 43 43 42 43 44 43 43 45 46 47 46 44 42 40 38 36 34 32 29 26 24 23 21 19 17 16 14 12 10 8 7
7 6 6 6 6 4 4 5 6 8 6 3 2 4 5 5 2 7 10 7 6 5 6 7 8 9 10 10 10 11 11 11 7 4 5 7 8 8 9 13 18 22 25 28 31 33 34 35 38 40 39 40 44 45 45 47 49 49 47 46 44 44 44 44 43 43 43 44 44 44 44 45 46 47 47 47 46 45 44 42 39 37 35 32 30 27 26 24 22 20 18 16 15 13 11 9 9
4 4 4 5 6 6 5 7 7 4 3 4 3 4 6 5 5 8 8 8 8 7 7 7 9 11 10 10 12 12 12 10 6 3 6 8 7 7 9 13 18 20 23 27 30 33 35 37 38 40 40 40 42 43 45 48 48 46 45 46 46 44 43 42 43 43 43 45 45 45 45 46 46 45 45 45 45 45 45 43 41 39 36 33 31 29 28 26 24 22 20 18 16 14 12 10 10
2 3 4 5 4 6 6 7 3 0 4 7 6 7 6 5 10 8 3 6 8 7 8 9 10 10 9 10 11 11 11 9 7 6 7 6 6 7 10 14 18 21 25 30 34 38 40 40 39 39 39 38 40 44 47 47 45 44 45 47 47 45 45 45 45 44 43 42 43 44 45 44 45 45 45 45 45 44 44 43 42 40 37 34 32 31 29 27 26 24 22 20 18 16 14 12 12
5 4 6 2 3 2 3 2 2 2 8 7 8 16 11 5 8 4 5 5 7 7 7 5 6 8 8 9 10 11 11 10 9 8 6 6 7 8 10 16 21 26 30 34 37 39 39 39 39 39 38 40 44 46 45 44 43 44 45 46 47 47 48 47 45 42 39 39 40 43 44 44 45 46 45 45 44 44 44 44 43 41 38 36 34 32 31 29 27 25 23 20 18 17 16 15 14
4 4 3 3 1 3 2 3 3 6 10 6 8 16 13 8 9 5 5 8 8 7 6 5 6 7 6 8 9 12 12 10 10 9 7 7 9 9 12 18 23 27 29 31 31 31 32 35 37 38 40 43 43 41 40 41 42 44 45 46 47 47 47 46 44 40 39 40 42 43 43 45 46 46 46 45 45 45 45 45 44 42 40 37 36 34 33 31 29 27 24 23 21 20 18 17 16
1 2 3 1 3 4 3 3 3 5 10 8 8 11 9 8 7 5 7 8 6 5 5 6 7 8 8 8 8 9 10 10 9 9 9 10 11 12 14 19 22 24 25 25 26 29 33 35 34 35 38 38 38 38 40 42 43 44 45 44 45 46 46 46 44 41 40 42 43 43 43 44 45 46 47 46 46 46 47 47 46 43 42 40 38 37 34 33 31 28 26 25 24 22 20 18 17
2 3 4 3 2 1 2 2 1 3 8 8 8 9 8 6 4 6 7 7 7 3 5 8 9 11 12 11 9 9 10 10 10 10 12 12 10 10 13 17 19 19 21 23 27 31 33 33 34 36 37 36 37 40 42 43 44 45 44 44 45 46 46 44 43 42 42 42 42 42 43 43 44 45 47 48 48 48 48 48 47 45 44 42 41 39 37 35 32 30 28 26 25 23 21 19 18
5 5 6 7 7 5 5 7 4 3 5 7 8 9 6 4 5 7 6 6 8 7 7 9 10 11 12 10 9 10 9 10 10 11 12 11 9 8 9 12 14 15 19 23 27 28 28 32 36 37 36 37 40 42 44 45 45 44 45 46 45 44 42 42 42 42 43 43 42 43 43 43 44 45 46 48 48 48 48 48 48 47 46 44 43 41 39 37 34 32 30 28 26 24 22 21 20
Wind_Direction
141 120 69 61 11 29 30 63 67 318 76 290 272 213 261 228 197 170 202 241 208 261 242 304 71 96 103 137 158 162 150 164 169 146 214 197 142 159 175 173 175 175 173 171 171 170 167 161 157 164 160 148 145 139 142 145 146 150 145 140 139 137 133 130 130 132 132 131 132 125 120 122 117 121 125 121 122 122 119 108 97 100 105 103 99 94 94 98 99 114 117 87 89 88 79 54 30
140 109 40 59 29 47 285 74 90 326 39 320 279 183 255 282 197 192 200 211 213 202 191 131 81 63 72 94 122 133 143 225 174 155 217 154 145 165 177 181 180 178 180 178 178 177 174 167 163 165 161 160 153 146 147 144 146 146 142 140 143 142 136 137 136 137 134 133 134 128 122 117 114 110 110 110 108 108 115 113 99 95 101 100 97 99 115 113 98 94 82 59 50 45 39 14 354
148 122 50 107 56 50 60 43 91 42 45 285 275 241 263 276 223 217 215 221 221 163 129 159 97 70 82 65 121 135 189 254 162 147 139 163 166 173 177 184 181 182 183 181 182 182 180 171 169 173 169 168 161 160 155 143 145 144 144 142 143 141 136 139 136 134 131 132 131 130 129 121 115 104 105 109 106 113 122 119 112 103 86 83 94 108 130 109 78 60 28 18 16 16 18 15 4
127 103 28 86 69 28 68 46 153 129 187 239 267 269 258 225 224 231 234 234 231 149 133 170 104 109 112 156 189 99 206 247 192 165 155 188 184 171 175 181 180 184 182 181 180 179 182 175 176 178 171 167 162 160 153 142 145 144 145 144 144 142 138 138 131 130 128 129 126 124 125 122 115 104 117 127 123 137 143 142 139 126 98 92 103 99 85 77 66 51 30 16 12 12 13 13 6
67 36 7 50 90 40 98 82 124 129 209 199 231 267 250 224 217 220 241 257 246 222 203 152 122 244 102 183 174 134 205 227 201 182 177 191 179 168 175 180 181 182 182 180 175 177 181 177 178 176 167 164 160 155 149 145 147 145 146 145 143 141 138 137 133 132 131 131 129 129 130 129 127 122 141 150 148 148 146 150 148 146 130 116 105 92 85 78 63 44 26 14 8 12 13 17 20
31 78 18 39 96 132 114 226 194 210 225 181 213 264 256 227 208 201 230 277 274 237 197 168 155 168 297 252 184 204 194 123 172 192 200 181 170 171 177 180 182 182 182 181 180 183 180 177 178 175 168 163 161 157 152 150 149 146 147 145 147 146 144 144 144 145 148 150 150 152 153 152 153 153 158 153 149 144 141 142 137 139 137 131 114 102 93 80 66 50 37 32 27 25 26 24 26
33 62 13 50 43 34 113 216 217 236 238 187 199 252 255 224 197 179 181 221 300 312 207 211 151 120 203 247 185 209 209 187 161 208 206 172 167 175 178 180 182 181 184 186 187 188 182 179 177 174 170 165 162 160 158 156 156 155 156 155 158 160 158 160 162 165 167 167 165 165 164 163 163 162 158 152 148 142 139 134 132 131 128 130 121 109 95 87 77 64 57 52 50 47 45 42 37
47 72 23 88 49 9 114 245 239 217 244 221 215 242 240 204 180 170 182 188 190 255 218 238 179 116 239 182 183 231 210 197 198 233 188 167 169 176 181 183 182 180 186 190 190 189 185 179 173 171 168 167 165 163 164 164 168 170 172 173 173 174 173 174 175 175 175 173 173 172 170 168 167 162 156 152 148 143 138 132 128 127 124 124 120 112 98 92 88 80 72 66 64 60 57 54 50
46 57 52 93 133 328 356 281 266 234 249 254 251 250 233 181 175 170 180 223 235 202 216 221 192 170 220 179 232 270 235 209 214 192 174 169 173 178 184 186 187 184 187 192 192 191 186 177 171 170 169 172 172 170 172 173 177 178 180 181 180 180 180 181 180 179 178 176 176 173 172 169 165 159 154 149 146 141 136 132 127 123 120 118 114 107 97 90 85 80 74 69 67 64 63 59 55
32 33 105 91 118 286 303 275 258 261 247 250 259 246 210 165 180 193 180 219 208 168 231 228 181 200 176 182 232 282 228 207 185 171 173 173 175 181 186 190 192 190 190 193 194 191 184 180 176 177 178 178 178 178 179 180 182 183 183 182 182 183 183 183 181 179 177 175 172 168 165 162 158 154 151 147 142 138 133 129 124 119 115 112 108 103 96 90 82 79 74 68 65 63 61 58 57
33 351 97 94 83 209 254 255 255 263 270 294 287 246 193 163 165 217 200 223 199 153 205 173 219 203 156 231 245 275 193 185 178 173 174 174 178 185 188 191 194 196 195 192 192 189 186 185 185 185 184 183 183 183 183 184 185 185 184 183 183 183 183 182 179 176 171 167 164 160 158 155 152 149 147 143 139 134 128 124 120 116 111 108 104 102 97 92 86 83 78 75 73 69 64 58 59
89 324 67 109 174 203 216 235 261 269 292 305 277 244 167 155 149 211 211 215 193 168 207 188 190 164 145 278 269 307 184 182 183 177 175 176 180 186 190 191 193 199 198 192 191 190 190 190 189 189 187 187 186 186 186 185 186 185 184 183 183 184 182 180 176 170 165 161 158 155 153 151 148 146 143 140 136 133 129 126 122 117 113 109 106 104 100 98 94 91 87 84 84 78 72 63 62
124 156 86 142 194 186 207 224 268 293 306 267 234 234 140 153 195 210 191 200 174 164 231 207 162 144 179 269 278 303 198 189 183 177 176 176 181 186 190 191 191 198 198 197 194 193 194 194 192 191 190 190 188 187 187 186 187 187 186 186 185 184 181 177 172 166 162 158 157 154 151 148 145 144 141 139 137 136 133 129 126 122 118 115 111 109 105 104 100 97 94 91 90 89 87 81 77
148 153 114 199 245 181 212 241 276 278 282 258 243 242 153 176 216 192 152 188 210 184 231 198 144 146 205 276 283 266 208 192 180 176 176 176 183 187 190 191 193 197 200 202 200 198 197 196 195 194 194 192 190 188 188 189 191 192 192 192 189 185 181 176 171 167 163 160 157 153 150 148 145 144 142 141 139 138 136 133 129 126 123 120 117 115 112 111 108 104 101 97 95 94 95 93 89
171 123 99 131 306 305 220 225 237 190 250 253 243 204 192 252 179 157 170 194 237 214 171 173 155 184 197 182 227 245 200 187 177 176 176 179 186 188 191 192 195 199 202 205 203 202 199 199 198 197 197 193 191 190 191 194 194 198 198 196 192 187 182 178 174 170 165 161 158 154 152 149 148 147 146 144 142 141 139 136 131 127 125 123 122 120 117 115 112 109 106 103 98 96 93 92 88
136 101 77 3 257 277 227 216 197 164 252 242 260 54 174 277 194 170 220 176 255 250 136 191 192 202 176 179 233 244 187 178 174 175 176 180 185 186 190 192 196 200 204 207 205 204 202 201 200 199 198 195 193 193 196 198 199 202 199 198 194 189 186 181 177 172 167 163 160 157 156 155 154 154 153 152 149 145 141 136 129 126 123 121 119 116 114 109 106 102 100 97 93 91 86 85 82
65 86 89 291 220 221 214 209 206 197 263 265 293 285 180 279 283 200 267 120 197 251 222 224 222 126 179 221 282 184 168 169 170 172 174 177 179 181 187 192 196 200 204 207 207 206 204 204 202 202 200 197 197 196 200 202 202 201 199 198 194 191 187 182 179 174 170 167 164 162 162 162 161 160 159 157 152 146 140 132 126 122 118 115 113 109 107 102 98 94 90 86 82 80 78 77 74
63 103 160 241 204 212 196 197 207 177 270 265 264 227 187 251 276 235 329 311 270 257 262 261 275 352 28 310 146 150 159 164 169 170 172 174 176 179 186 191 195 200 204 206 208 207 206 205 204 204 201 199 199 199 202 204 203 201 200 198 194 192 188 184 181 177 174 171 169 168 167 166 164 163 160 155 150 143 135 127 122 119 113 110 108 105 102 96 90 84 80 76 74 72 71 70 68
136 136 177 231 206 217 202 203 223 192 260 256 259 245 189 221 236 121 248 262 266 240 261 277 267 273 14 86 137 150 158 163 170 173 175 177 181 185 189 193 196 201 204 206 208 207 207 206 205 205 203 201 201 201 203 205 203 202 200 198 195 192 189 187 184 181 179 176 174 173 171 169 165 163 158 153 147 137 130 125 121 117 112 106 102 99 95 88 80 75 71 68 66 65 63 62 61
182 147 211 243 217 235 248 235 241 232 235 246 267 250 188 234 225 135 226 261 262 226 234 221 239 245 215 143 148 155 161 168 175 179 182 187 190 192 192 194 198 203 206 207 207 205 207 207 206 206 204 203 202 202 203 203 202 202 200 198 196 193 191 189 187 184 181 180 179 176 174 169 165 163 157 150 143 136 131 128 124 119 113 104 98 93 86 79 72 65 62 60 57 55 53 53 53
183 164 211 240 201 235 258 243 241 235 217 215 241 256 254 252 196 190 196 267 270 235 223 207 219 231 198 169 172 167 168 175 181 186 190 193 197 199 201 200 202 206 207 207 206 205 206 207 207 205 205 204 203 203 203 202 201 200 199 197 196 194 192 190 189 187 183 183 181 179 175 168 165 162 155 149 144 141 138 135 129 122 115 104 94 85 77 70 64 59 54 50 47 46 44 43 43
167 217 224 239 189 231 258 244 236 222 214 242 248 264 261 244 182 213 190 229 259 234 211 212 219 225 188 175 181 174 177 182 187 194 197 199 201 204 207 208 207 208 208 208 208 207 206 206 207 206 205 205 205 205 204 203 201 200 198 196 196 194 192 192 190 188 186 185 182 179 174 168 165 161 156 153 150 149 145 139 131 122 114 102 90 77 70 64 56 55 51 47 46 45 43 40 39
222 252 239 243 220 237 260 256 239 203 227 256 251 258 256 291 272 232 199 229 249 236 190 201 222 224 185 169 172 177 188 190 194 199 200 201 204 206 207 208 208 208 208 210 209 208 207 207 207 206 205 205 205 205 205 203 202 202 199 197 196 194 193 193 191 189 188 187 182 179 177 171 167 163 162 160 158 157 151 143 133 123 114 100 86 73 64 60 56 56 53 52 52 49 48 46 42
219 256 259 247 226 233 252 262 269 249 243 249 273 314 266 251 270 285 238 243 248 246 211 201 226 216 169 161 175 187 193 195 201 204 203 204 206 208 208 208 209 208 209 211 210 208 208 207 206 207 206 206 205 204 204 204 203 202 200 198 198 195 194 194 192 189 188 187 183 181 179 176 171 168 167 167 165 162 157 149 140 131 119 100 84 72 61 59 57 57 56 54 54 51 51 47 43
217 238 256 257 236 239 254 265 268 264 253 251 300 286 253 234 266 309 266 260 256 242 234 226 214 172 162 177 189 193 198 201 207 208 209 211 212 212 212 211 210 209 212 212 210 209 209 207 206 207 208 207 206 205 204 204 203 201 200 200 198 196 196 195 193 190 189 188 186 183 181 179 176 174 173 172 171 169 164 157 149 141 126 104 88 71 60 58 54 55 54 50 49 46 45 44 41
219 224 254 271 275 274 276 272 257 251 250 200 239 270 263 237 262 284 265 265 263 227 231 230 192 185 192 194 196 196 203 206 210 211 213 217 216 216 216 215 211 212 215 213 210 210 209 207 207 208 209 208 207 206 205 204 203 201 200 201 198 198 198 196 193 191 191 190 189 186 183 183 181 179 179 177 177 176 170 164 159 151 137 117 97 74 64 55 52 52 47 45 43 38 36 36 33
210 220 267 261 275 287 269 264 263 255 252 195 208 264 273 252 188 266 267 265 209 202 233 233 203 219 217 206 207 202 206 211 212 211 214 217 215 218 218 214 214 216 216 214 213 212 208 207 208 209 209 209 207 207 206 204 203 202 202 201 200 199 198 196 195 194 193 193 193 188 185 185 185 185 184 183 182 182 177 171 168 162 151 132 105 80 66 53 51 48 41 42 37 34 32 28 25
227 253 305 279 290 297 265 258 265 246 263 208 190 259 282 288 181 245 260 260 110 198 241 243 224 235 229 217 217 207 213 218 214 209 209 213 214 216 216 214 215 215 215 216 215 212 208 208 209 208 208 208 208 208 207 205 204 203 202 202 202 201 199 197 197 197 196 196 195 191 188 187 188 190 189 188 187 187 184 177 175 170 161 143 117 87 69 57 51 43 39 37 34 36 30 26 20
285 38 322 290 327 307 275 266 247 193 231 190 150 270 285 239 220 238 252 258 18 263 261 255 239 241 239 229 223 214 222 222 212 211 215 217 217 216 216 218 216 213 216 218 215 211 210 210 208 208 207 208 209 209 208 207 205 204 204 204 204 203 201 200 199 199 198 197 197 194 192 191 192 193 192 192 191 192 188 183 182 175 166 153 130 100 77 64 51 43 37 31 30 28 19 19 13
293 29 300 288 337 300 275 271 193 200 207 167 134 264 272 251 243 243 253 259 254 268 266 259 250 247 242 235 230 227 226 219 211 217 221 221 221 218 220 222 218 216 216 214 213 213 212 210 208 207 206 208 209 209 209 208 207 205 205 206 205 205 203 202 202 201 200 199 198 197 195 194 195 196 195 194 193 194 190 186 185 179 173 162 145 124 101 69 48 40 29 22 16 14 11 7 1
295 303 239 287 308 274 282 68 129 216 223 164 145 229 255 264 263 252 251 241 212 244 259 257 254 252 248 240 235 237 231 219 220 224 224 224 224 221 223 224 220 218 215 212 215 215 212 209 207 207 206 208 208 208 209 209 208 206 206 207 207 207 206 205 204 202 202 201 200 199 197 197 196 196 197 197 196 196 193 189 186 184 178 170 161 152 136 73 46 28 18 14 7 10 7 360 355
348 247 268 282 205 263 298 296 175 209 250 153 155 227 251 261 267 263 248 212 194 228 252 255 256 255 252 247 238 243 243 229 229 231 230 228 226 223 223 224 221 218 215 214 216 213 210 209 207 207 206 207 208 208 210 209 209 207 207 208 208 208 207 208 207 204 203 202 202 201 199 199 198 198 198 199 199 198 196 192 189 188 183 177 174 171 167 134 62 5 1 2 0 3 359 354 350
326 207 242 257 230 262 307 296 222 201 211 171 202 228 252 256 263 271 267 213 201 225 251 253 254 256 252 251 243 245 251 245 239 235 233 230 226 224 223 223 222 220 218 215 213 210 208 208 207 207 207 207 207 207 208 208 208 208 208 208 209 209 209 210 209 207 205 203 204 203 202 200 199 199 199 200 201 200 198 195 192 190 186 183 179 180 180 172 163 343 354 358 0 359 352 348 346
284 226 230 247 245 243 280 292 284 186 173 211 229 229 242 252 259 275 275 214 191 219 250 253 251 256 255 253 251 248 247 249 248 238 233 229 224 225 223 223 223 221 219 215 213 211 209 207 206 207 207 206 205 205 206 207 208 208 208 208 210 210 210 212 211 210 207 205 205 204 204 202 200 200 201 202 201 201 199 197 195 190 188 185 182 184 185 184 191 318 355 3 4 356 350 347 346
238 231 237 264 253 238 250 270 278 164 211 221 233 238 244 256 263 271 270 250 231 238 246 255 258 260 259 256 252 249 247 248 249 244 239 231 222 223 222 221 222 219 217 215 212 211 208 206 206 205 205 204 203 203 204 205 205 206 206 207 209 210 211 212 212 212 210 208 206 205 206 205 202 200 202 203 201 201 199 197 195 191 189 187 185 186 185 190 192 184 2 22 12 356 350 349 349
234 236 240 259 260 247 246 258 251 209 248 236 234 247 246 255 259 260 265 263 262 262 259 259 258 261 261 257 253 251 249 249 250 248 245 235 223 221 220 219 219 218 216 212 209 208 206 204 202 202 202 201 199 199 200 201 201 202 203 204 207 209 210 211 212 213 213 211 208 207 209 208 204 202 202 203 202 202 200 198 195 191 190 189 188 187 185 190 191 185 167 100 25 9 355 351 353
259 262 257 256 262 266 254 264 267 205 224 240 233 249 251 251 256 255 259 264 263 264 265 261 251 251 255 253 255 253 247 250 257 256 246 235 227 221 218 216 214 213 211 208 206 205 205 202 200 200 199 198 196 196 197 198 198 198 199 203 206 208 208 209 211 213 214 214 212 210 210 210 207 204 204 204 203 203 201 198 195 193 192 191 191 188 186 189 187 186 175 154 91 44 11 360 356
260 253 263 266 257 265 258 263 275 228 198 251 242 256 259 250 255 257 259 261 259 257 257 261 254 246 250 252 253 253 250 255 265 264 244 229 224 217 213 211 207 205 205 205 206 206 204 201 200 199 197 196 197 198 197 198 200 200 201 203 205 206 206 208 211 212 214 215 214 213 211 210 209 207 206 205 204 204 202 199 198 196 194 191 190 187 187 189 186 186 181 166 134 79 41 24 3
243 242 262 271 256 271 268 253 270 254 175 259 254 256 261 254 254 256 257 255 255 255 251 256 257 249 250 248 250 254 254 257 262 262 248 223 217 212 207 205 204 205 205 204 206 204 200 199 200 199 196 196 198 198 199 200 203 203 204 204 204 204 207 210 211 213 214 215 215 213 212 212 211 208 207 207 206 205 204 203 200 198 196 195 193 190 189 189 189 186 184 176 145 107 76 61 18
218 226 248 262 253 266 269 242 269 277 195 262 268 264 263 260 259 252 251 254 256 260 255 256 257 249 249 249 249 254 254 254 255 258 254 222 209 208 202 203 203 203 203 202 202 201 198 199 199 197 197 197 198 199 201 201 202 202 203 205 204 204 208 209 211 213 214 214 214 213 214 213 212 209 208 208 208 206 206 205 202 199 198 198 197 195 193 192 192 190 186 183 158 127 110 103 44
214 211 226 249 250 249 257 269 305 310 272 278 288 285 270 231 243 248 244 251 254 256 256 257 256 247 249 256 254 251 252 253 251 254 253 222 204 206 203 203 201 200 202 202 201 200 199 199 198 197 197 197 198 199 199 198 197 196 197 199 199 202 206 206 208 211 212 213 213 213 213 213 212 211 209 209 209 208 206 205 204 202 199 198 198 197 196 193 193 194 192 191 179 140 125 121 92
242 213 221 238 246 250 260 282 319 323 294 311 355 306 288 195 211 238 239 245 249 250 250 252 254 249 245 253 257 252 249 250 251 255 253 226 206 207 205 203 200 201 204 204 203 201 200 199 197 196 197 197 198 198 197 196 195 194 192 190 191 195 200 204 207 209 207 209 211 212 212 213 213 212 211 210 209 208 207 205 204 204 202 200 199 196 195 195 195 195 195 195 194 166 130 119 117
271 228 219 233 241 250 256 270 299 270 259 289 96 295 287 259 204 222 227 234 244 248 249 249 251 251 241 241 253 257 254 251 248 252 251 228 207 202 204 203 201 204 207 205 202 200 199 198 196 196 196 197 197 197 196 195 195 195 196 196 196 197 201 207 210 209 208 209 210 211 211 212 213 213 213 211 210 208 207 206 205 204 204 202 199 196 195 197 197 196 197 198 198 188 162 123 129
263 221 190 207 222 233 226 219 233 235 276 299 168 151 274 283 242 198 210 218 237 248 250 252 251 249 245 239 245 252 256 255 246 243 244 230 213 203 205 205 204 206 205 201 199 199 198 197 196 196 196 197 197 197 197 197 197 198 199 201 202 204 207 210 210 208 209 209 209 210 211 212 213 214 214 213 211 209 207 206 205 205 205 202 201 199 198 197 196 197 196 196 199 194 198 162 145
251 173 148 161 186 203 167 169 221 286 344 300 228 144 263 283 270 168 198 206 224 241 241 247 251 250 250 244 242 246 254 260 251 238 237 228 214 209 209 206 205 205 201 198 198 198 197 196 196 196 197 198 198 198 198 200 201 201 201 202 205 209 211 212 209 207 208 208 208 209 210 211 212 213 215 215 212 210 208 207 206 205 205 204 203 200 197 198 199 201 200 199 202 195 199 205 165
232 113 97 70 71 72 84 102 85 14 311 257 211 163 227 282 294 110 148 192 216 235 235 245 254 257 259 255 251 248 250 258 252 243 242 231 221 218 211 205 202 200 199 199 198 196 195 195 195 197 199 199 199 200 200 201 202 202 203 204 207 209 209 209 209 207 207 207 207 207 208 210 211 211 213 214 214 212 209 207 207 206 206 206 204 200 198 200 200 202 203 202 203 199 198 203 188
131 97 60 33 21 25 51 34 64 24 281 242 194 186 189 267 293 127 168 206 210 219 231 252 256 257 259 257 256 251 246 249 247 247 249 234 221 215 204 197 195 195 197 197 195 194 194 194 196 198 200 200 201 201 201 202 203 204 206 207 208 209 206 205 205 204 204 205 205 206 207 208 209 210 211 212 214 213 211 209 208 207 206 206 205 203 202 203 201 200 201 201 200 198 198 197 196
115 105 76 27 335 7 27 354 52 187 265 238 192 188 187 233 260 187 230 251 212 199 215 239 246 250 254 255 257 253 251 254 249 246 243 220 195 192 191 191 188 189 193 194 193 192 193 195 196 198 200 201 202 202 203 204 204 206 208 209 210 210 207 205 205 205 204 204 205 205 205 206 207 208 210 211 212 213 211 209 208 207 206 206 206 204 204 202 201 201 201 200 199 195 196 199 201
108 116 119 86 300 339 354 314 44 216 259 245 186 182 213 243 250 234 256 266 239 211 211 222 233 243 248 253 257 256 265 273 253 236 226 207 197 191 189 188 186 189 193 193 192 191 193 196 197 198 201 202 202 203 204 205 206 208 210 211 212 211 210 210 209 208 207 206 205 204 203 204 204 206 207 210 211 211 210 209 207 206 206 206 206 204 202 201 201 203 202 201 200 197 198 202 201
157 154 154 167 212 231 249 262 267 256 265 264 176 168 252 277 271 229 239 255 255 233 222 224 231 240 246 255 265 274 286 280 255 236 218 208 209 201 194 192 190 193 195 193 192 194 195 197 198 201 204 203 202 204 205 206 209 211 212 212 213 212 212 213 212 211 210 208 206 205 205 205 205 206 208 210 212 211 210 210 208 206 205 205 205 202 202 202 203 204 203 202 201 200 200 202 202
187 164 147 178 188 183 207 226 247 259 274 295 201 175 235 274 276 225 229 258 282 263 248 256 265 264 265 277 284 284 280 274 275 262 231 225 217 206 201 199 197 196 194 193 194 196 196 198 201 203 205 204 204 205 206 208 211 212 212 214 215 215 215 215 215 214 212 210 208 207 208 207 208 209 210 211 211 210 210 210 209 207 205 204 203 202 202 202 203 203 203 202 202 202 203 203 205
228 125 120 218 201 181 223 243 236 244 286 281 231 212 237 254 271 259 248 263 274 276 274 269 265 260 258 266 270 270 269 280 312 292 242 240 227 213 208 205 203 198 194 195 197 197 199 201 203 205 206 207 207 207 208 210 212 212 213 214 215 216 217 217 218 217 215 213 210 208 209 209 210 210 211 211 211 210 209 209 208 208 205 203 202 202 202 202 202 202 201 201 202 204 206 206 207
192 125 187 223 161 161 224 269 277 160 257 258 250 254 271 302 286 269 232 251 261 272 267 249 253 265 267 267 268 272 277 293 310 281 257 255 237 227 221 210 203 198 196 199 201 201 202 203 204 206 207 207 209 211 211 212 212 212 214 215 215 216 216 218 219 218 217 214 211 210 210 210 210 211 211 211 210 209 209 208 208 207 205 203 202 202 203 203 203 203 203 204 204 204 206 207 209
131 177 215 172 67 132 174 246 308 243 246 253 258 263 271 281 278 310 32 323 290 284 281 282 300 305 299 289 287 288 288 295 299 287 279 264 240 232 229 218 209 204 202 203 204 205 205 205 205 206 206 208 211 213 213 213 212 213 215 215 216 216 217 218 219 219 218 215 213 211 209 209 210 210 210 210 209 208 208 208 208 206 204 202 202 202 203 203 203 203 203 205 205 205 206 206 208
138 216 236 103 161 241 165 181 215 227 243 246 242 258 267 249 248 278 308 290 284 287 308 335 316 300 291 287 289 292 294 296 296 290 276 252 235 227 224 221 216 211 210 208 206 206 208 210 210 209 210 212 213 213 215 216 215 215 216 216 217 217 217 218 219 219 217 217 216 212 209 209 209 209 209 209 208 208 207 207 207 206 203 202 202 202 202 202 202 203 203 203 204 205 206 205 205
32 290 319 69 189 204 182 190 182 218 243 250 237 245 259 252 236 230 243 241 233 265 324 329 305 305 299 284 281 286 289 288 289 285 271 252 237 229 224 224 220 215 214 212 206 206 209 212 212 213 216 216 215 214 215 217 217 217 217 217 218 218 218 218 217 217 217 218 217 214 211 210 208 207 208 208 208 208 207 206 205 204 202 201 201 202 202 202 203 204 204 204 203 204 205 203 203
200 235 252 248 230 217 245 237 176 222 246 250 249 243 247 260 229 199 218 214 202 235 322 307 298 301 294 285 277 273 277 279 278 276 273 264 252 241 233 234 231 221 215 212 208 209 209 210 212 216 218 217 217 216 216 218 218 218 218 217 218 218 218 217 216 215 217 218 218 216 214 210 208 208 207 207 207 207 207 205 203 203 202 201 201 201 201 202 203 204 204 204 203 203 203 201 201
195 207 223 227 230 241 265 254 219 216 247 250 259 256 252 301 299 262 243 235 244 267 287 281 279 276 271 269 261 257 261 267 269 273 279 279 270 259 248 243 236 225 219 214 211 211 209 211 213 216 218 218 219 218 218 219 218 218 218 218 218 218 216 216 215 215 216 217 218 217 214 211 209 209 207 207 207 206 205 203 202 202 201 201 201 201 201 202 203 203 202 202 203 202 201 200 200